EHI
0 0 0 0 0 0 0 0 0 0 0 0 0 0 0 0 0 0 0 1 1 1 0 0 0 0 0 0 0 0 0 0 0 0 0 0 0 0 0 0 0 0 0
0 0 0 0 0 0 0 0 0 0 0 0 0 0 0 0 0 0 0 0 1 1 0 0 0 0 0 0 0 0 0 0 0 0 0 0 0 0 0 0 0 0 0
0 0 0 0 0 0 0 0 0 0 0 0 0 0 0 0 0 0 0 0 0 0 0 0 0 0 0 0 0 0 0 0 0 0 0 0 0 0 0 0 0 0 0
0 0 0 0 0 0 0 0 0 0 0 0 0 0 0 0 0 0 0 0 0 0 0 0 0 0 0 0 0 0 0 0 0 0 0 0 0 0 0 0 0 0 0
0 0 0 0 0 0 0 0 0 0 0 0 0 0 0 0 0 0 0 0 0 0 0 0 0 0 0 0 0 0 0 0 0 0 0 0 0 0 0 0 0 0 0
1 0 0 0 0 0 0 0 0 0 0 0 0 0 0 0 0 0 0 0 0 0 0 0 0 0 0 0 0 0 0 1 1 0 0 0 0 0 0 0 0 0 0
2 1 0 0 0 0 0 0 0 0 0 0 0 0 0 0 0 0 0 0 0 0 0 0 0 0 0 0 0 0 0 1 1 0 0 0 0 0 0 0 0 0 0
2 1 1 0 0 0 0 0 0 0 0 0 0 0 0 0 0 0 0 0 0 0 0 0 0 0 0 0 0 0 0 0 0 0 0 0 0 0 0 0 0 0 0
3 3 2 1 0 0 0 0 0 0 0 0 0 0 0 0 0 0 0 0 0 0 0 0 0 0 0 0 0 0 0 0 0 0 0 0 0 0 0 0 0 0 0
3 3 4 3 2 0 0 0 0 0 0 0 0 0 0 0 0 0 0 0 0 0 0 0 0 0 0 0 0 0 0 0 0 0 0 0 0 0 0 0 0 0 0
3 3 4 5 3 1 0 0 0 0 0 0 0 0 0 0 0 0 0 0 0 0 0 0 0 0 0 0 0 0 0 0 0 0 0 0 1 0 0 0 0 0 0
4 4 5 6 4 2 1 0 0 0 0 0 0 0 0 0 0 0 0 0 0 0 0 0 0 0 0 0 0 0 0 0 0 0 0 0 0 0 0 0 0 0 0
3 4 6 6 5 3 1 0 0 0 0 0 0 0 0 0 0 0 0 0 0 0 0 0 0 0 0 0 0 0 0 0 0 0 0 0 0 0 0 0 0 0 0
4 4 5 6 5 4 2 0 0 0 0 0 0 0 0 0 0 0 0 0 0 0 0 0 0 0 0 0 0 0 0 0 0 0 0 0 0 0 0 0 0 0 0
5 5 6 6 6 5 3 1 0 0 0 0 0 0 0 0 0 0 0 0 0 0 0 0 0 0 0 0 0 0 0 0 0 0 0 0 0 0 0 0 0 0 0
6 6 6 6 6 5 3 2 1 0 0 0 0 0 0 0 0 0 0 0 0 0 0 0 0 0 0 0 0 0 0 0 0 0 0 0 0 0 0 0 0 0 0
6 6 6 6 6 5 3 2 1 0 0 0 0 0 0 0 0 0 0 0 0 0 0 0 0 0 0 0 0 0 0 0 0 0 0 0 0 0 0 0 0 0 0
6 6 6 5 5 4 3 1 0 0 0 0 0 0 0 0 0 0 0 0 0 0 0 0 0 0 0 0 0 0 0 0 0 0 0 0 0 0 0 0 0 0 0
5 5 5 4 3 3 1 0 1 1 1 1 1 1 1 1 0 0 0 0 0 0 0 0 0 0 0 0 0 0 0 0 0 0 0 0 0 0 0 0 0 0 0
4 4 3 2 2 2 1 0 1 2 2 2 2 2 2 1 1 1 1 0 0 0 0 0 0 0 0 0 0 0 0 0 0 0 0 0 0 0 0 0 0 0 0
6 5 3 2 1 1 0 0 1 1 2 3 3 3 1 1 1 1 1 1 0 0 0 0 0 0 0 0 0 0 0 0 0 0 0 0 0 0 0 0 0 0 0
6 6 5 4 3 2 1 0 0 1 2 3 3 2 1 0 0 0 0 0 0 0 0 0 0 0 0 0 0 0 0 0 0 0 0 0 0 0 0 0 0 0 0
6 5 5 5 4 3 1 0 0 1 2 3 3 2 1 0 1 1 0 0 0 0 0 0 0 0 0 0 0 0 0 0 0 0 0 0 0 0 0 0 0 0 0
4 4 4 4 4 3 1 0 0 0 1 2 3 2 1 1 1 1 0 0 0 0 0 0 0 0 0 0 0 0 0 0 0 0 0 0 0 0 0 0 0 0 0
3 4 4 4 3 2 1 0 0 0 0 1 2 2 1 1 1 1 0 0 0 0 0 0 0 0 0 0 0 0 0 0 0 0 0 0 0 0 0 0 0 0 0
3 4 4 4 4 2 0 0 0 0 0 0 1 2 1 1 0 0 0 0 0 0 0 0 0 0 0 0 0 0 0 0 0 0 0 0 0 0 0 0 0 0 0
Wind_Speed
2 1 1 1 2 1 1 1 1 2 2 2 2 2 3 3 3 3 2 6 8 7 8 8 8 8 8 7 7 7 7 7 7 6 6 6 6 7 7 7 6 6 5
2 2 1 1 1 1 1 1 1 1 1 1 1 2 2 2 2 2 2 3 6 7 7 7 7 7 7 8 7 7 7 7 7 6 6 6 6 6 6 6 6 6 5
3 2 2 1 1 1 1 1 1 1 1 1 1 1 2 2 2 2 2 1 2 5 7 7 6 7 7 8 8 7 7 6 7 7 6 6 6 6 6 6 6 6 6
3 3 2 1 1 1 1 1 1 1 1 1 1 0 1 1 2 2 2 2 1 2 4 6 7 7 7 8 8 8 8 8 8 7 7 7 7 7 7 7 6 6 6
4 3 2 2 2 1 1 1 1 1 1 1 1 0 0 1 2 2 3 3 3 2 2 3 6 6 7 7 8 8 8 8 8 8 8 8 8 7 7 7 7 7 7
4 4 3 2 2 2 1 1 2 1 1 1 1 1 1 1 1 2 2 2 3 3 3 3 3 4 6 6 7 8 8 8 8 8 8 8 8 7 7 7 7 8 8
5 4 3 3 3 3 3 3 2 2 1 1 2 1 2 1 1 1 2 2 3 4 3 4 3 2 3 5 6 7 8 8 8 9 8 8 8 8 8 8 8 8 8
5 5 4 4 4 3 3 3 3 2 1 1 2 1 1 2 2 1 1 2 3 3 4 4 4 4 3 2 4 7 8 8 8 8 8 8 9 9 9 9 9 9 8
5 4 5 4 4 4 3 3 3 4 2 1 1 3 2 2 2 2 1 1 2 2 3 3 5 5 5 4 4 5 7 7 8 8 8 8 8 8 9 9 9 9 9
4 5 4 4 4 4 4 4 4 3 3 2 1 1 1 2 2 1 2 1 2 3 3 3 4 5 5 4 5 6 7 6 6 7 8 8 7 7 8 9 10 9 9
4 5 5 5 4 4 4 4 3 4 3 3 3 2 1 1 1 2 2 2 2 2 3 4 3 4 4 5 4 6 7 7 7 7 7 7 8 8 8 8 9 9 9
3 5 5 5 5 4 4 4 4 4 3 3 3 3 3 2 2 2 2 2 2 2 2 3 4 4 4 5 6 8 8 8 8 7 7 7 7 7 8 8 8 9 9
4 5 5 5 4 4 4 4 4 4 4 4 4 3 3 2 2 3 2 2 2 2 2 2 3 4 4 4 5 8 8 9 9 8 8 7 7 7 7 8 8 8 9
5 5 6 6 6 5 5 4 3 4 3 4 4 4 3 3 3 3 3 3 1 2 2 3 2 3 4 4 5 7 6 8 9 9 8 8 7 7 7 7 7 8 8
4 5 6 6 6 6 5 5 4 4 4 4 4 4 3 2 3 3 3 3 3 2 3 3 2 2 3 4 5 4 5 7 8 8 9 8 8 8 8 8 8 8 8
5 5 6 6 6 5 5 5 4 4 4 4 3 3 3 2 2 2 3 3 3 3 3 2 3 2 2 3 4 5 5 6 8 8 8 8 8 8 8 8 8 8 8
5 6 6 6 6 6 5 5 5 5 5 4 4 4 4 3 2 2 2 3 3 3 4 3 2 2 2 2 2 3 3 4 4 6 7 8 8 8 8 8 8 8 8
5 6 6 6 6 6 6 6 6 6 6 5 5 4 4 3 3 3 3 3 3 4 3 4 2 1 2 2 2 2 2 3 3 5 7 7 8 8 8 8 8 8 8
5 5 5 6 6 6 6 6 7 6 6 6 6 6 5 4 4 3 3 3 3 3 3 3 2 1 1 1 1 1 1 2 3 3 5 6 7 7 7 7 8 8 8
6 6 5 5 5 5 5 6 6 6 6 5 5 6 5 6 6 5 4 4 3 2 2 2 2 2 2 1 1 1 2 2 2 2 2 3 4 5 6 6 7 7 8
5 5 5 4 4 4 5 6 6 6 6 5 5 5 6 7 7 5 4 4 4 3 2 2 2 2 2 1 2 2 2 2 2 2 2 2 2 2 3 5 6 7 7
3 3 4 4 4 4 5 7 6 5 5 5 5 4 4 5 5 6 6 6 5 4 4 3 3 3 3 3 2 2 2 2 2 1 2 2 1 3 3 3 4 6 6
3 3 3 3 3 3 4 5 7 5 4 4 4 3 3 3 3 3 3 3 2 3 4 3 3 3 3 3 2 3 3 3 3 1 1 2 1 3 2 2 3 3 4
3 2 2 2 2 1 2 4 5 4 3 3 3 3 3 2 1 2 2 1 0 0 2 2 2 3 2 2 2 3 3 2 2 1 1 3 2 2 2 2 2 2 3
2 2 2 2 1 0 1 3 4 3 2 2 1 1 2 1 1 3 3 2 0 1 1 1 1 1 1 2 0 1 1 2 2 2 1 2 2 2 3 2 2 2 2
3 3 2 2 1 1 2 2 4 3 3 2 2 2 2 2 2 2 2 2 1 1 1 2 2 2 2 2 1 1 1 2 2 2 1 2 2 1 2 2 2 2 2
Wind_Direction
128 105 93 90 85 80 82 74 68 66 71 96 118 132 143 150 154 158 178 185 179 180 179 177 176 174 171 170 171 169 172 170 166 165 164 162 162 166 169 168 166 166 162
146 139 124 109 112 108 105 99 92 81 74 90 107 138 153 152 150 161 174 193 191 189 191 192 188 187 185 182 182 183 183 180 176 174 176 171 170 172 176 178 176 177 173
163 156 155 167 175 134 116 97 78 79 105 101 102 132 152 162 166 173 176 181 201 204 203 203 201 204 200 195 193 194 192 188 186 186 185 182 178 180 182 188 187 185 183
169 156 161 182 171 139 132 129 112 97 89 93 93 102 150 173 198 197 188 195 202 216 225 218 211 212 212 209 206 202 199 197 195 194 195 196 195 194 195 198 200 198 195
171 161 171 175 153 138 147 168 128 136 138 135 159 146 179 213 219 216 205 206 211 213 223 240 228 218 220 221 217 210 206 203 201 203 206 208 207 205 204 204 207 207 204
174 164 171 169 158 151 158 150 140 122 133 140 115 63 359 265 234 232 225 212 218 220 217 230 234 230 229 230 226 219 216 210 205 208 211 214 215 212 210 210 213 215 210
176 172 176 167 166 175 180 166 145 134 117 113 89 31 359 355 245 240 232 227 230 226 217 220 218 219 234 237 233 229 228 222 212 212 214 216 218 217 216 217 218 221 218
180 184 178 175 175 173 173 170 153 139 140 133 129 103 358 341 331 275 234 230 236 227 225 224 216 217 223 228 235 234 233 231 225 219 219 220 221 222 221 224 220 222 223
186 186 182 177 180 176 184 185 170 163 167 164 151 147 155 233 302 323 295 248 234 227 232 228 224 221 220 222 232 238 237 234 232 229 227 226 222 222 225 227 225 223 222
188 190 184 183 183 185 190 193 182 170 161 172 163 154 168 166 170 306 316 294 257 236 234 233 230 227 222 220 225 229 234 229 229 233 234 231 226 225 226 228 230 227 222
193 192 187 187 189 192 198 193 179 177 176 173 171 161 151 127 146 171 266 298 295 255 235 231 233 233 227 223 225 230 229 228 230 234 236 236 234 230 228 232 235 232 230
199 198 192 194 196 195 197 196 189 186 190 183 178 174 171 171 182 178 213 252 272 282 260 236 231 232 229 226 231 230 227 227 231 236 239 239 239 237 235 235 237 238 237
205 208 200 197 200 201 198 187 187 196 193 188 191 195 194 194 170 171 183 222 255 285 293 262 236 230 230 222 231 232 232 226 226 231 234 237 240 241 240 240 240 242 244
209 201 198 200 200 197 196 186 191 203 194 196 204 198 198 203 189 186 181 175 223 287 285 276 269 232 232 225 231 229 236 227 226 230 232 233 235 237 239 242 240 241 242
205 196 197 200 199 194 192 184 195 201 191 200 207 205 206 210 199 200 192 185 180 225 265 268 268 253 230 228 230 224 230 231 230 232 232 234 235 236 237 241 243 243 240
200 190 195 197 195 192 190 190 196 196 190 202 202 205 213 210 203 198 199 203 199 198 236 251 250 266 254 242 222 221 228 232 234 234 234 235 237 237 237 240 243 242 239
194 197 199 195 197 197 194 194 200 194 198 203 200 200 211 202 200 200 195 198 203 197 228 259 254 261 244 247 239 224 229 231 235 233 233 233 234 236 238 239 241 241 238
201 202 197 197 201 201 197 199 205 200 199 201 202 197 210 200 201 201 198 208 209 207 215 245 257 254 245 243 233 235 238 232 234 235 233 236 235 236 237 238 238 237 236
204 203 199 204 207 203 201 204 204 201 204 206 202 202 207 197 207 209 208 213 212 206 207 222 247 246 250 248 225 245 252 257 248 243 235 236 235 235 237 240 239 237 235
203 205 204 208 208 204 204 205 204 204 206 209 207 207 208 205 209 211 212 213 205 197 198 215 239 249 250 255 233 243 260 251 262 268 254 242 238 236 241 244 243 240 236
204 199 194 199 203 205 211 205 204 205 204 211 214 213 214 213 210 210 212 204 195 197 201 214 230 233 241 232 237 235 246 265 264 249 260 258 249 253 251 245 242 242 241
183 177 187 193 202 219 214 201 197 201 200 206 214 217 217 210 212 216 219 206 193 196 204 210 225 229 242 240 239 231 237 248 268 241 238 270 249 262 264 254 247 241 244
164 169 185 191 210 231 211 195 194 191 196 204 203 201 206 197 189 200 202 191 199 215 206 204 220 236 244 235 222 231 229 235 250 287 233 269 271 273 277 277 256 251 253
155 166 179 193 202 243 205 194 182 178 177 188 192 188 186 187 192 175 166 143 164 258 233 220 229 244 255 257 227 236 239 237 252 264 227 257 271 271 287 286 280 258 259
144 144 140 160 168 305 121 170 160 151 149 153 137 127 147 148 169 152 151 156 129 9 26 147 219 278 329 336 253 193 211 225 261 265 218 246 270 277 277 276 298 303 283
130 120 102 98 104 55 47 129 154 145 137 121 87 75 79 98 88 117 143 152 191 288 45 42 26 358 346 356 16 224 241 240 257 275 267 240 268 285 287 281 304 312 305